[[{"header":{"parameterUnit":"m.s-1","parameterCategory":1,"la1":30.2991,"la2":30.254,"lo1":-89.0895,"lo2":-89.0444,"dy":0.0017,"dx":0.0017,"nx":28,"ny":28,"refTime":"2024-11-30T09:00:00:Z","depth":0,"parameterNumber":2,"parameterNumberName":"U-component_of_WINDS"},"data":[0,0,0,0,0,0,0,0,0,0,0,0,0,0,0,0,0,0,0,0,0,0,0,0,0,0,0,0,0,0,0,0,0,0,0,0,0,0,0,0,0,0,0,0,0,0,0,0,0,0,0,0,0,0,0,0,0,0,-2.4675,-2.4676,0,-2.4729,-2.4729,-2.473,-2.4676,-2.4674,-2.4672,-2.467,-2.4725,-2.4728,-2.4732,0,0,0,0,0,0,0,0,0,0,0,0,0,-2.4525,-2.4528,-2.4675,-2.4676,-2.4677,-2.4729,-2.4729,-2.473,-2.4676,-2.4674,-2.4671,-2.4669,-2.4724,-2.4728,-2.4732,0,0,0,0,0,0,0,0,0,0,0,0,0,-2.4586,-2.4529,-2.4675,-2.4656,-2.4655,-2.4729,-2.473,-2.473,-2.4677,-2.4674,-2.467,-2.4667,-2.4722,-2.4727,-2.4733,-2.4828,0,0,-2.4748,-2.4751,0,0,0,0,0,0,0,0,-2.4582,-2.4591,-2.4658,-2.4657,-2.4656,-2.4692,-2.4697,-2.4763,-2.4678,-2.4668,-2.4669,-2.4666,-2.4717,-2.4722,-2.4739,-2.4831,-2.4833,-2.4749,-2.4752,-2.4754,-2.4756,0,0,0,0,0,0,0,-2.4578,-2.4589,-2.4696,-2.4659,-2.4658,-2.4644,-2.4649,-2.4709,-2.471,-2.4669,-2.4665,-2.4672,-2.4716,-2.4734,-2.474,-2.4834,-2.4749,-2.4753,-2.4757,-2.4759,-2.5005,-2.5009,0,0,0,0,0,0,-2.4576,-2.4586,-2.4695,-2.4698,-2.4611,-2.465,-2.4655,-2.4684,-2.4709,-2.471,-2.4675,-2.4669,-2.4727,-2.4734,-2.4742,-2.4855,-2.4754,-2.4759,-2.4762,-2.5002,-2.5006,-2.501,0,0,0,0,0,0,-2.4573,-2.4587,-2.4693,-2.4641,-2.4653,-2.4656,-2.4688,-2.4687,-2.4705,-2.4713,-2.4713,-2.4694,-2.4725,-2.4735,-2.4807,-2.4856,-2.4761,-2.4766,-2.4998,-2.5003,-2.5008,-2.5082,0,0,0,0,0,0,-2.4569,-2.4586,-2.4623,-2.4642,-2.4656,-2.4757,-2.4691,-2.469,-2.4714,-2.4708,-2.4731,-2.4732,-2.4723,-2.4799,-2.4812,-2.4861,-2.477,-2.4994,-2.5,-2.5006,-2.5075,-2.5089,-2.5101,0,0,0,0,0,-2.4564,-2.4642,-2.4625,-2.4638,-2.4702,-2.476,-2.4768,-2.4756,-2.4719,-2.4755,-2.476,-2.4731,-2.4848,-2.4807,-2.4821,-2.4873,-2.499,-2.4998,-2.5006,-2.5069,-2.5086,-2.51,0,0,0,0,0,0,-2.4628,-2.4644,-2.4625,-2.4711,-2.4735,-2.4751,-2.4797,-2.4775,-2.4809,-2.4802,-2.4785,-2.4791,-2.4867,-2.4877,-2.4831,-2.4966,-2.4913,-2.4924,-2.4957,-2.4973,-2.4985,-2.4981,-2.4774,0,0,0,0,0,-2.4652,-2.4698,-2.4709,-2.4784,-2.4797,-2.4795,-2.482,-2.4808,-2.4832,-2.4841,-2.4852,-2.4876,-2.4917,-2.4946,-2.4985,-2.5076,-2.508,-2.5118,-2.5131,-2.5141,-2.5151,-2.5199,-2.5215,-2.5035,-2.5035,-2.5035,0,0,-2.4703,-2.4717,-2.4747,-2.4797,-2.4814,-2.4861,-2.4804,-2.4857,-2.4891,-2.4849,-2.4918,-2.4926,-2.4952,-2.5034,-2.507,-2.5044,-2.5201,-2.5151,-2.516,-2.5163,-2.5208,-2.5225,-2.5241,-2.5041,-2.504,-2.5039,0,0,-2.4819,-2.4834,-2.4898,-2.4915,-2.4941,-2.4939,-2.4955,-2.4974,-2.4978,-2.5046,-2.5015,-2.5056,-2.5129,-2.5148,-2.5168,-2.5289,-2.5264,-2.5303,-2.537,-2.5417,-2.5431,-2.5443,-2.5486,-2.5502,-2.5312,-2.5312,-2.5313,0,-2.4878,-2.4948,-2.4933,-2.4988,-2.5011,-2.4974,-2.5038,-2.5056,-2.5094,-2.511,-2.508,-2.517,-2.5185,-2.527,-2.53,-2.5317,-2.5333,-2.53,-2.543,-2.5442,-2.5454,-2.5494,-2.551,-2.5317,-2.5316,-2.5316,-2.5315,0,-2.502,-2.5069,-2.5117,-2.5153,-2.5181,-2.5241,-2.5234,-2.5264,-2.525,-2.5251,-2.532,-2.5337,-2.5378,-2.5397,-2.5384,-2.5481,-2.5464,-2.5432,-2.5379,-2.5476,-2.5513,-2.5529,-2.5323,-2.5322,-2.532,-2.5319,0,0,-2.5179,-2.5205,-2.5223,-2.5238,-2.5263,-2.5301,-2.5358,-2.5398,-2.5423,-2.545,-2.5497,-2.5559,-2.553,-2.5552,-2.554,-2.5582,-2.5676,-2.5545,-2.5545,-2.5568,-2.5782,-2.5805,-2.5823,-2.5659,-2.5662,-2.5664,-2.5779,0,-2.5295,-2.5393,-2.5381,-2.5475,-2.552,-2.5485,-2.5535,-2.5555,-2.5557,-2.5595,-2.5598,-2.5641,-2.56,-2.5613,-2.5652,-2.5656,-2.5718,-2.5648,-2.5702,-2.5704,-2.5697,-2.5843,-2.5868,-2.5976,-2.5794,-2.5797,-2.5799,0,-2.5444,-2.5475,-2.5574,-2.559,-2.5609,-2.5654,-2.5688,-2.5725,-2.5747,-2.5746,-2.577,-2.5751,-2.5807,-2.5753,-2.583,-2.5783,-2.5804,-2.5809,-2.5813,-2.5818,-2.5757,-2.5851,-2.6011,-2.6027,-2.5822,-2.582,-2.5818,0,-2.5549,-2.5616,-2.5683,-2.5697,-2.5719,-2.5751,-2.5761,-2.578,-2.5805,-2.5835,-2.5851,-2.5888,-2.5908,-2.5937,-2.5928,-2.5889,-2.6007,-2.5952,-2.6007,-2.6007,-2.6033,-2.6032,-2.6198,-2.6048,-2.6048,-2.6047,-2.6047,0,-2.568,-2.5741,-2.573,-2.5772,-2.5839,-2.5824,-2.5891,-2.5897,-2.5914,-2.5956,-2.5929,-2.5968,-2.5954,-2.5993,-2.5987,-2.6051,-2.6061,-2.6061,-2.6058,-2.6063,-2.6063,-2.6077,-2.6069,-2.6052,-2.6051,-2.605,-2.6049,0,-2.5809,-2.5804,-2.5875,-2.5889,-2.5894,-2.5943,-2.5955,-2.5994,-2.5993,-2.6046,-2.6058,-2.6057,-2.6101,-2.6095,-2.6145,-2.614,-2.622,-2.6209,-2.6213,-2.621,-2.6265,-2.626,-2.6446,-2.6469,-2.6304,-2.6306,-2.6307,0,-2.5893,-2.5939,-2.5958,-2.5983,-2.5996,-2.6038,-2.6062,-2.6048,-2.6075,-2.6103,-2.6138,-2.6179,-2.6212,-2.6284,-2.6288,-2.6325,-2.6314,-2.6377,-2.632,-2.6323,-2.6315,-2.6312,-2.6316,-2.6388,-2.639,-2.6392,-2.6393,0,-2.6042,-2.6036,-2.6072,-2.6108,-2.6137,-2.6164,-2.6189,-2.6211,-2.6199,-2.623,-2.6275,-2.63,-2.635,-2.6391,-2.6426,-2.6436,-2.6413,-2.6411,-2.6425,-2.6431,-2.6431,-2.6431,-2.6243,-2.6407,-2.6405,-2.6404,-2.6404,-2.6403,-2.615,-2.6189,-2.6208,-2.6249,-2.6266,-2.6289,-2.6325,-2.6329,-2.6365,-2.6404,-2.6394,-2.6444,-2.6464,-2.6508,-2.6522,-2.6561,-2.6538,-2.656,-2.6565,-2.657,-2.6577,-2.6425,-2.6568,-2.6567,-2.6567,-2.6566,-2.6566,0,-2.6298,-2.6307,-2.6345,-2.6379,-2.6411,-2.6385,-2.641,-2.6439,-2.6483,-2.6503,-2.6535,-2.6586,-2.6626,-2.6632,-2.667,-2.67,-2.669,-2.671,-2.6708,-2.671,-2.6595,-2.6579,-2.6717,-2.6717,-2.6717,-2.6717,-2.6717,-2.6717,-2.6378,-2.6442,-2.6439,-2.6511,-2.6521,-2.6569,-2.6586,-2.6607,-2.6622,-2.668,-2.6712,-2.6716,-2.6731,-2.6769,-2.6804,-2.6805,-2.682,-2.6844,-2.6841,-2.6733,-2.6718,-2.6704,-2.6688,-2.6848,-2.6848,-2.6952,-2.6953,-2.6954]},{"header":{"parameterUnit":"m.s-1","parameterCategory":1,"la1":30.2991,"la2":30.254,"lo1":-89.0895,"lo2":-89.0444,"dy":0.0017,"dx":0.0017,"nx":28,"ny":28,"refTime":"2024-11-30T09:00:00:Z","depth":0,"parameterNumber":3,"parameterNumberName":"V-component_of_WINDS"},"data":[0,0,0,0,0,0,0,0,0,0,0,0,0,0,0,0,0,0,0,0,0,0,0,0,0,0,0,0,0,0,0,0,0,0,0,0,0,0,0,0,0,0,0,0,0,0,0,0,0,0,0,0,0,0,0,0,0,0,-1.7131,-1.7132,0,-1.723,-1.7231,-1.7232,-1.7269,-1.7269,-1.7269,-1.7269,-1.7369,-1.7372,-1.7375,0,0,0,0,0,0,0,0,0,0,0,0,0,-1.6972,-1.6975,-1.7131,-1.7132,-1.7133,-1.723,-1.7231,-1.7232,-1.7269,-1.7269,-1.7269,-1.7268,-1.7368,-1.7371,-1.7375,0,0,0,0,0,0,0,0,0,0,0,0,0,-1.7053,-1.6976,-1.7131,-1.7163,-1.7167,-1.7229,-1.7231,-1.7233,-1.727,-1.7269,-1.7269,-1.7268,-1.7367,-1.7371,-1.7376,-1.7412,0,0,-1.7389,-1.7391,0,0,0,0,0,0,0,0,-1.7048,-1.7059,-1.7157,-1.7161,-1.7166,-1.7237,-1.7212,-1.7293,-1.727,-1.7231,-1.7269,-1.7268,-1.7325,-1.7333,-1.7353,-1.7417,-1.7421,-1.7389,-1.7392,-1.7394,-1.7395,0,0,0,0,0,0,0,-1.7043,-1.7055,-1.717,-1.7159,-1.7164,-1.7173,-1.7184,-1.7227,-1.7279,-1.7234,-1.7237,-1.7248,-1.7328,-1.7348,-1.7355,-1.7422,-1.7389,-1.7393,-1.7396,-1.7398,-1.752,-1.752,0,0,0,0,0,0,-1.7032,-1.705,-1.7167,-1.7173,-1.7105,-1.7176,-1.7188,-1.7214,-1.7279,-1.7288,-1.7249,-1.725,-1.7341,-1.735,-1.7359,-1.7405,-1.7394,-1.7398,-1.7401,-1.7519,-1.752,-1.7521,0,0,0,0,0,0,-1.7028,-1.7042,-1.7163,-1.7112,-1.7128,-1.7179,-1.7208,-1.7217,-1.7238,-1.729,-1.7299,-1.726,-1.7341,-1.7353,-1.7398,-1.7409,-1.74,-1.7404,-1.7519,-1.752,-1.752,-1.7498,0,0,0,0,0,0,-1.7024,-1.7041,-1.7055,-1.7112,-1.7131,-1.7201,-1.7209,-1.7219,-1.7245,-1.7248,-1.7303,-1.7312,-1.7342,-1.7391,-1.7403,-1.7415,-1.7408,-1.7518,-1.7519,-1.752,-1.7498,-1.7498,-1.7498,0,0,0,0,0,-1.7018,-1.7045,-1.7056,-1.707,-1.7151,-1.7202,-1.7212,-1.7245,-1.7246,-1.7261,-1.7294,-1.731,-1.7406,-1.7396,-1.7409,-1.7423,-1.7517,-1.7519,-1.752,-1.7498,-1.7498,-1.7498,0,0,0,0,0,0,-1.6988,-1.7053,-1.7066,-1.7113,-1.7151,-1.7208,-1.7228,-1.7245,-1.7284,-1.7284,-1.7324,-1.7336,-1.7378,-1.7405,-1.7392,-1.7461,-1.7463,-1.7467,-1.7441,-1.7442,-1.7442,-1.7434,-1.7411,0,0,0,0,0,-1.6987,-1.7023,-1.7078,-1.7114,-1.7133,-1.7177,-1.72,-1.7222,-1.7264,-1.728,-1.7317,-1.7357,-1.7395,-1.742,-1.7459,-1.7502,-1.7514,-1.7518,-1.7518,-1.7517,-1.752,-1.7544,-1.7546,-1.7525,-1.7525,-1.7525,0,0,-1.6985,-1.7025,-1.7046,-1.7109,-1.7142,-1.7178,-1.719,-1.7228,-1.7255,-1.7286,-1.7331,-1.7359,-1.7406,-1.745,-1.7471,-1.7474,-1.7529,-1.7519,-1.7519,-1.7522,-1.7546,-1.7548,-1.7549,-1.7526,-1.7526,-1.7526,0,0,-1.7,-1.7034,-1.7067,-1.7099,-1.7148,-1.7177,-1.7185,-1.7239,-1.7259,-1.7305,-1.7329,-1.7361,-1.7427,-1.7459,-1.7484,-1.7509,-1.7525,-1.7521,-1.7521,-1.7544,-1.7545,-1.7547,-1.7555,-1.7558,-1.7524,-1.7523,-1.7523,0,-1.6991,-1.7047,-1.7082,-1.7118,-1.7145,-1.7175,-1.7208,-1.7237,-1.7296,-1.7314,-1.7316,-1.7399,-1.7432,-1.7484,-1.749,-1.7509,-1.7519,-1.7515,-1.7542,-1.7544,-1.7546,-1.7555,-1.7558,-1.7523,-1.7523,-1.7523,-1.7523,0,-1.7033,-1.7071,-1.7092,-1.7148,-1.7177,-1.7212,-1.7252,-1.7277,-1.7296,-1.7324,-1.737,-1.7411,-1.7458,-1.7472,-1.7492,-1.7526,-1.7526,-1.7535,-1.7537,-1.7547,-1.7555,-1.7559,-1.7521,-1.7522,-1.7522,-1.7522,0,0,-1.7032,-1.7107,-1.7114,-1.7139,-1.7195,-1.7225,-1.726,-1.7306,-1.7327,-1.7366,-1.7396,-1.7451,-1.7459,-1.7487,-1.7511,-1.7531,-1.7547,-1.7537,-1.7538,-1.7537,-1.7587,-1.758,-1.7583,-1.7558,-1.7559,-1.7559,-1.7583,0,-1.7054,-1.7119,-1.7151,-1.7202,-1.7237,-1.7265,-1.7296,-1.7333,-1.7361,-1.7394,-1.7424,-1.7462,-1.747,-1.7487,-1.7508,-1.7541,-1.7558,-1.7539,-1.7586,-1.7587,-1.7573,-1.7588,-1.7581,-1.7601,-1.7586,-1.7587,-1.7587,0,-1.7088,-1.7127,-1.7181,-1.7232,-1.7248,-1.7275,-1.732,-1.7351,-1.7394,-1.7412,-1.7443,-1.7465,-1.7503,-1.7503,-1.7555,-1.7542,-1.7563,-1.7582,-1.7583,-1.7589,-1.7588,-1.7593,-1.7608,-1.7611,-1.7593,-1.7593,-1.7592,0,-1.7081,-1.7147,-1.7188,-1.7209,-1.727,-1.7288,-1.7314,-1.7356,-1.7381,-1.7419,-1.7436,-1.7478,-1.7501,-1.7533,-1.7566,-1.7564,-1.7615,-1.7618,-1.7631,-1.763,-1.764,-1.7639,-1.7658,-1.7654,-1.7654,-1.7654,-1.7654,0,-1.7102,-1.7134,-1.7186,-1.7211,-1.7247,-1.7283,-1.7318,-1.7346,-1.7383,-1.7413,-1.744,-1.7468,-1.751,-1.7543,-1.7569,-1.7608,-1.7618,-1.7634,-1.764,-1.7632,-1.7629,-1.7646,-1.7645,-1.7655,-1.7655,-1.7655,-1.7655,0,-1.71,-1.7136,-1.7183,-1.7236,-1.725,-1.7274,-1.7319,-1.7344,-1.7373,-1.7411,-1.7422,-1.7466,-1.7507,-1.7543,-1.7596,-1.7613,-1.7653,-1.7661,-1.7638,-1.7642,-1.7652,-1.7651,-1.7683,-1.7688,-1.768,-1.768,-1.768,0,-1.7111,-1.7136,-1.7192,-1.7214,-1.7239,-1.7275,-1.7301,-1.7337,-1.7363,-1.7412,-1.7431,-1.7473,-1.7509,-1.7572,-1.7609,-1.765,-1.7659,-1.7667,-1.7665,-1.7655,-1.7658,-1.7656,-1.7659,-1.7667,-1.7667,-1.7667,-1.7666,0,-1.7126,-1.7142,-1.7178,-1.7221,-1.7251,-1.7286,-1.7322,-1.7338,-1.7381,-1.7408,-1.745,-1.7477,-1.7532,-1.7573,-1.7618,-1.7644,-1.7662,-1.7667,-1.7672,-1.7663,-1.7648,-1.7656,-1.7637,-1.7666,-1.7666,-1.7666,-1.7666,-1.7666,-1.713,-1.7154,-1.7196,-1.7235,-1.7266,-1.7299,-1.7324,-1.7356,-1.7391,-1.7438,-1.7457,-1.7499,-1.754,-1.7602,-1.7628,-1.7661,-1.7664,-1.7672,-1.7674,-1.7675,-1.7673,-1.7643,-1.7669,-1.7669,-1.7669,-1.7669,-1.7669,0,-1.7146,-1.7174,-1.721,-1.7259,-1.729,-1.7304,-1.7344,-1.7369,-1.7405,-1.7442,-1.7476,-1.7524,-1.7563,-1.7603,-1.7645,-1.7664,-1.7673,-1.7674,-1.7672,-1.7678,-1.7668,-1.7659,-1.7665,-1.7665,-1.7665,-1.7665,-1.7665,-1.7665,-1.7157,-1.7197,-1.7219,-1.7274,-1.7302,-1.7343,-1.7365,-1.7395,-1.7424,-1.7476,-1.7509,-1.7534,-1.7572,-1.7617,-1.7654,-1.7665,-1.7679,-1.7677,-1.7689,-1.7679,-1.7679,-1.7679,-1.7671,-1.7679,-1.7679,-1.7697,-1.7697,-1.7697]}]]